Back to catalog

STARLINK-30509

AliveCommunicationsVLEO
NORAD 57977·PAYLOAD·🇺🇸 United States

Launched Sep 30, 2023 from Cape Canaveral Space Force Station

Loading…

Next Passes (next 24 hours)

TLE

FreshSource: CelesTrak SupGP

Epoch: Sep 14, 2026, 14:34 UTC

1 57977C 23151P   26257.60743056  .00016546  00000+0  59928-3 0  2574
2 57977  43.0023   3.7701 0001362 262.5628 184.3152 15.27571345    15

Track STARLINK-30509 in real time with AllMySat

Download on the App Store